SCP
0 -0 -0 -0 -0 0 -0 -0 -0 -0 -0 -0 -0 0 0 -0 -0 0 0 0 0 0 0 0 0 0 0 0 0 0 0 0 -0 -0 -0 0 0 0 -0 0 -0 -0 -0 -0 -0
0 -0 -0 -0 -0 -0 -0 -0 -0 -0 -0 -0 -0 0 -0 0 0 0 -0 0 -0 0 0 0 -0 -0 0 0 0 0 0 0 0 -0 -0 -0 0 0 0 0 -0 -0 -0 -0 -0
0 -0 -0 -0 -0 -0 -0 -0 -0 -0 -0 -0 -0 -0 -0 -0 0 0 -0 -0 -0 -0 -0 -0 -0 -0 -0 -0 0 -0 0 0 0 0 0 0 0 0 0 0 0 -0 -0 0 -0
-0 -0 -0 -0 -0 -0 -0 -0 -0 -0 -0 -0 0 -0 -0 0 0 -0 -0 -0 -0 -0 -0 -0 -0 -0 0 -0 -0 0 0 0 0 0 0 0 0 0 0 0 0 0 -0 -0 -0
-0 -0 -0 -0 0 0 -0 -0 -0 -0 -0 -0 0 -0 0 0 -0 -0 -0 -0 -0 -0 -0 -0 -0 -0 0 -0 0 0 0 0 0 0 0 0 0 0 0 0 0 0 -0 -0 -0
-0 -0 0 0 0 0 0 -0 -0 -0 -0 -0 0 -0 0 -0 -0 -0 -0 -0 -0 -0 -0 -0 -0 -0 0 0 0 0 0 0 0 0 0 0 0 0 0 0 0 0 -0 -0 -0
-0 0 0 0 0 0 -0 -0 -0 -0 -0 -0 -0 0 -0 -0 -0 -0 -0 -0 -0 -0 -0 -0 -0 -0 -0 -0 0 0 0 0 0 0 0 0 0 0 0 0 0 -0 -0 -0 -0
0 0 0 0 0 -0 -0 -0 -0 -0 -0 -0 0 0 -0 -0 -0 -0 -0 -0 -0 -0 -0 -0 -0 0 -0 0 0 -0 -0 0 0 0 0 0 0 0 0 0 0 0 0 -0 0
-0 0 0 0 0 -0 -0 -0 -0 -0 -0 0 0 0 -0 -0 0 -0 -0 -0 -0 0 -0 -0 -0 -0 -0 0 0 -0 0 0 0 0 0 0 0 0 0 0 0 0 0 0 0
-0 0 0 0 0 -0 -0 -0 -0 -0 -0 0 -0 -0 -0 -0 0 0 -0 0 -0 0 0 0 -0 0 -0 -0 0 0 0 0 0 0 0 0 0 0 0 0 0 0 0 0 0
-0 0 0 0 0 -0 -0 0 0 -0 0 -0 -0 -0 0 -0 0 0 0 0 0 -0 0 0 0 0 0 0 0 0 0 0 0 0 0 0 0 0 0 0 0 0 0 0 0
-0 -0 0 0 0 0 0 0 0 0 0 -0 -0 -0 0 0 0 0 0 0 0 0 0 0 0 0 -0 0 0 0 0 0 0 0 0 0 0 0 0 0 0 0 0 0 0
-0 -0 0 0 0 0 0 0 0 0 -0 -0 -0 0 0 -0 0 0 0 0 0 0 0 -0 0 0 0 0 0 0 0 0 0 0 0 0 0 0 0 0 0 0 0 0 0
-0 -0 0 0 0 0 0 0 0 0 0 -0 0 -0 0 -0 0 0 0 0 -0 0 -0 0 0 0 0 0 0 0 0 0 0 0 0 0 0 0 0 0 0 0 0 0 0
-0 -0 0 0 0 0 0 0 0 0 0 0 -0 0 0 -0 0 0 0 0 0 0 0 0 0 0 0 0 0 0 0 0 0 0 0 0 0 0 0 0 0 0 0 0 0
-0 -0 -0 0 0 0 0 0 0 0 0 0 0 0 0 -0 0 0 0 0 0 0 -0 0 0 0 0 0 0 0 0 0 0 0 0 -0 0 0 0 0 0 0 0 0 0
-0 0 0 0 0 -0 0 0 0 0 -0 0 0 0 0 0 0 -0 0 0 0 0 0 0 0 0 0 0 0 0 0 0 0 0 0 -0 0 0 0 0 0 0 0 0 0
-0 0 -0 0 0 0 0 0 0 -0 -0 0 0 0 0 0 0 0 0 0 0 0 0 0 0 0 0 0 0 0 0 0 0 0 0 0 0 0 0 0 0 0 0 0 0
-0 0 0 0 0 0 0 0 0 0 0 0 0 0 0 0 0 0 0 0 0 0 0 0 0 0 0 0 0 0 0 0 0 0 0 0 0 0 0 0 0 0 0 0 0
-0 -0 0 0 0 0 0 -0 0 0 0 0 0 0 -0 0 0 0 0 0 0 0 0 0 0 0 0 0 0 0 0 0 0 0 0 0 0 0 0 0 0 0 0 0 0
0 0 0 0 0 0 0 -0 0 0 0 0 0 0 0 0 0 0 0 0 0 0 0 0 0 0 0 0 0 0 0 0 0 0 0 0 0 -0 -0 -0 0 0 0 0 0
0 0 0 0 0 0 0 0 0 0 0 0 0 0 0 0 0 0 0 0 0 0 0 0 0 0 0 0 0 0 0 0 0 0 0 0 0 0 0 0 0 0 0 0 0
0 0 0 0 0 0 0 0 0 0 0 0 0 0 0 0 0 0 0 0 0 0 0 0 0 0 0 0 0 0 0 0 0 0 0 0 0 0 0 0 0 0 0 0 0
0 0 0 0 0 0 0 0 0 0 0 0 0 0 0 0 0 0 0 0 0 0 0 0 0 0 0 0 0 0 0 0 0 0 0 0 0 0 0 0 0 0 0 0 0
0 0 0 0 0 0 0 0 0 0 0 0 0 0 0 0 0 0 0 0 0 0 0 0 0 0 0 0 0 0 0 0 0 0 0 0 0 0 0 0 0 0 0 0 0
0 0 0 0 0 0 0 0 0 0 0 0 0 0 0 0 0 0 0 0 0 0 0 0 0 0 0 0 0 -0 0 0 0 0 0 0 0 0 0 0 0 0 0 0 0
0 0 0 0 0 0 0 0 0 0 0 0 0 0 0 0 0 0 0 0 0 0 0 0 0 0 0 0 0 0 0 0 0 0 0 0 0 0 0 0 0 0 0 0 0
Wind_Speed_500mb
1 3 7 11 12 11 13 14 13 10 4 3 8 10 10 7 5 6 8 14 18 25 18 18 22 11 20 42 42 46 6 11 13 21 11 43 20 49 34 44 29 37 43 32 25
3 6 10 12 12 13 15 15 12 7 0 5 9 10 7 4 8 15 15 12 14 13 12 11 18 24 39 38 41 17 5 17 3 21 15 43 57 53 48 49 44 42 34 30 20
6 11 14 13 13 14 16 14 10 3 2 7 9 8 7 11 23 8 9 6 3 5 0 16 31 46 58 59 60 43 10 10 35 40 38 46 55 56 45 17 41 41 21 20 7
11 14 14 13 13 15 16 13 7 1 2 7 11 12 10 16 8 3 6 6 5 6 15 24 32 48 22 18 35 7 8 31 30 24 33 22 48 42 49 34 32 21 45 85 69
14 14 12 12 13 15 15 12 6 0 1 6 14 16 15 19 25 9 7 5 6 14 26 40 48 53 15 19 13 8 2 15 24 20 24 49 40 30 32 19 25 29 40 62 70
12 11 11 11 12 14 14 11 6 1 1 10 17 19 19 22 2 6 9 5 16 28 33 29 35 42 18 19 12 16 20 9 17 21 8 10 28 36 18 17 26 35 47 43 51
9 10 10 9 9 11 13 11 7 2 2 5 15 22 26 27 6 9 15 10 12 11 30 28 26 29 40 23 12 16 8 13 9 27 10 5 7 14 24 17 30 52 52 51 47
9 8 7 6 6 9 12 12 8 5 5 8 13 18 19 4 17 17 18 18 7 10 14 21 18 24 23 30 6 8 8 9 16 19 13 17 5 18 21 23 33 50 52 54 49
7 6 4 4 5 8 11 12 10 10 9 13 15 13 22 5 9 5 9 20 10 9 12 17 10 25 34 5 12 10 13 4 9 26 14 10 14 18 27 29 36 45 45 47 43
6 5 4 5 5 6 10 13 13 12 9 20 21 18 23 12 4 10 4 6 16 16 18 23 13 6 12 11 5 11 5 12 15 12 16 14 12 15 37 31 42 43 40 39 35
4 6 7 8 4 5 6 2 6 9 20 22 23 12 8 3 6 10 6 13 16 16 11 35 5 6 8 9 12 17 15 18 5 16 11 6 19 18 29 34 43 48 39 34 29
5 8 11 8 5 11 3 7 20 16 19 35 32 27 7 4 15 9 13 19 15 12 23 13 9 12 16 16 9 14 14 17 18 15 10 6 2 16 32 21 46 53 50 45 33
4 12 13 11 11 5 4 12 15 23 10 35 42 26 15 14 23 14 13 19 27 12 12 4 8 17 14 13 17 14 19 19 17 18 14 13 8 11 9 44 51 43 34 24 17
2 13 15 11 3 13 22 13 16 18 4 11 19 20 27 17 5 9 10 19 23 8 15 5 15 10 14 19 18 11 17 17 20 17 8 10 10 16 21 15 26 34 28 32 23
1 13 12 9 9 11 10 13 25 3 4 18 18 11 18 15 18 7 5 16 12 18 9 11 11 14 14 10 6 6 12 13 18 13 9 18 3 14 18 15 17 35 39 28 22
3 10 15 6 10 11 16 16 12 5 10 16 18 14 11 27 17 15 5 3 13 10 15 6 10 7 5 14 14 4 10 16 11 4 4 23 14 5 6 5 9 22 23 25 12
8 13 18 13 7 32 16 15 5 6 17 14 19 16 17 16 13 14 11 9 6 2 12 18 6 15 12 9 17 20 14 9 11 6 10 24 13 5 12 21 28 24 19 10 11
12 10 20 23 4 24 10 7 7 16 15 0 7 18 18 18 14 16 9 9 19 14 11 9 10 8 5 9 3 12 4 9 4 5 11 15 7 3 12 22 17 9 10 10 16
11 5 12 11 2 13 11 3 9 8 10 17 6 8 13 6 10 7 11 9 9 10 6 8 3 5 13 10 6 12 9 6 3 7 4 3 8 3 12 9 18 22 19 24 30
15 16 19 13 16 3 1 10 10 36 11 14 9 0 12 5 8 5 6 11 9 13 14 7 8 7 9 6 10 3 2 10 6 1 5 13 8 5 9 11 11 14 25 30 36
21 12 9 29 7 5 6 11 22 13 14 9 13 12 15 10 0 5 15 14 17 12 9 9 6 13 15 5 12 2 4 2 6 8 7 3 11 7 4 5 9 25 33 36 40
13 6 20 24 6 10 9 11 15 17 13 5 6 8 12 15 12 14 11 9 10 14 7 2 5 5 11 16 8 5 3 7 9 10 2 8 11 5 1 27 30 26 30 37 44
32 16 19 19 5 9 18 24 6 6 5 7 3 10 15 13 10 8 15 11 3 9 5 5 5 5 20 9 5 5 5 9 8 7 9 8 11 14 17 23 34 36 42 47 44
14 7 11 27 28 11 14 17 7 11 7 10 7 14 10 3 10 2 9 10 12 14 14 8 2 6 10 15 10 11 13 13 13 7 11 13 18 12 13 16 35 41 44 40 41
6 8 17 7 12 20 15 11 16 5 16 18 4 10 12 9 9 9 9 12 17 18 9 9 4 8 16 21 25 18 21 17 14 14 10 14 6 7 10 15 35 41 46 35 45
13 14 20 29 29 19 12 11 17 22 14 13 13 15 8 9 7 6 8 6 7 5 10 9 5 7 12 21 26 29 26 17 12 14 10 13 6 10 29 45 50 44 42 48 49
16 10 11 17 19 11 8 14 20 27 31 2 9 7 2 5 25 26 19 6 3 11 12 9 7 4 8 15 23 16 11 5 6 11 6 7 5 23 25 37 37 37 45 46 43
Wind_Direction_500mb
231 192 176 163 157 156 154 148 145 138 125 316 300 276 262 240 189 195 223 290 285 293 275 253 250 258 282 271 273 273 334 289 297 9 151 67 91 56 75 99 113 118 107 114 139
198 177 166 160 160 161 156 152 153 146 357 305 294 272 270 279 275 276 283 288 280 276 262 265 288 277 252 259 261 259 110 271 118 47 24 64 72 68 60 68 108 116 115 123 131
172 164 161 162 165 164 161 163 165 166 321 313 289 233 257 304 316 266 196 262 321 171 306 272 269 273 256 251 259 255 187 36 37 29 28 86 72 68 69 40 62 146 155 138 57
156 158 162 166 167 169 172 175 181 175 316 314 262 243 269 315 343 274 219 219 204 184 280 281 285 290 272 259 270 15 32 77 69 31 24 83 88 68 67 57 74 76 55 74 80
149 156 162 165 170 175 180 185 193 181 295 258 264 260 294 312 285 41 71 134 208 284 301 291 281 284 275 304 63 348 105 59 87 75 56 99 104 103 77 63 57 64 54 60 65
144 152 158 164 173 182 191 200 206 176 45 235 256 276 301 289 94 24 74 264 293 305 300 307 319 329 336 339 72 3 3 118 118 118 116 106 114 105 98 107 98 73 70 54 46
130 139 150 162 179 195 205 212 218 222 116 240 262 280 286 263 282 273 291 281 305 287 301 317 343 330 327 336 349 352 338 302 177 156 149 147 68 110 122 91 93 83 76 61 48
131 136 146 162 184 204 216 221 228 226 210 277 271 298 277 299 235 248 299 274 313 312 297 318 313 303 300 308 312 262 304 255 242 141 128 121 92 114 117 118 97 89 79 71 60
154 152 155 167 185 208 219 226 234 235 227 275 282 278 277 288 167 312 319 310 350 302 298 303 293 271 277 253 330 301 250 250 106 171 146 126 157 142 126 98 96 93 87 81 73
188 186 173 160 174 194 211 221 227 243 253 279 263 290 254 286 118 253 223 332 310 310 283 262 257 243 323 47 284 327 319 350 124 244 150 195 135 151 139 145 123 113 103 94 85
180 166 150 142 150 179 165 170 300 266 243 223 280 253 136 59 300 257 300 285 244 289 276 280 238 295 33 47 14 346 348 340 318 210 146 171 159 171 148 151 136 120 116 110 102
165 151 140 133 146 150 195 277 319 316 306 263 272 277 59 200 263 201 262 247 232 234 259 310 58 0 359 337 36 19 19 359 334 28 36 75 315 142 165 164 139 126 122 121 121
155 154 147 141 151 114 307 347 341 322 282 291 224 241 202 245 273 98 336 339 302 282 274 14 51 22 11 15 36 32 32 2 340 333 357 2 315 259 147 118 107 117 123 129 131
155 164 166 174 229 309 283 351 347 337 346 258 199 241 183 225 251 79 355 320 320 7 16 35 86 51 332 56 39 5 15 358 332 356 308 46 286 311 146 116 120 132 151 148 142
161 181 183 196 326 358 22 325 312 321 313 141 176 186 171 217 123 82 16 322 358 354 55 270 51 49 11 44 44 250 343 288 280 283 329 292 3 287 116 141 168 166 152 152 145
258 193 191 240 297 357 344 322 318 28 248 196 141 179 212 224 157 132 215 2 308 325 304 236 103 90 64 353 311 294 310 322 282 171 332 266 199 333 24 167 102 63 122 112 100
326 215 201 234 285 6 311 302 13 222 317 146 161 182 217 198 171 151 198 220 217 187 342 328 232 86 85 12 359 21 44 347 351 21 208 341 35 28 65 58 75 70 66 16 342
339 243 224 224 6 338 294 1 248 270 288 261 146 171 192 209 185 167 150 280 18 67 28 16 347 25 110 81 349 288 129 140 276 355 285 320 52 197 106 97 96 70 88 60 48
341 301 237 174 45 302 310 262 235 278 0 343 81 320 203 188 123 135 179 266 50 66 106 10 40 128 81 48 93 309 50 189 71 293 4 196 90 63 158 118 52 34 22 56 20
329 288 263 165 216 245 40 252 285 287 352 353 326 233 279 335 94 133 245 28 102 80 79 331 336 344 149 206 142 206 273 33 353 274 298 325 3 155 43 9 8 10 62 35 17
333 316 131 180 241 211 218 250 295 78 58 352 3 360 345 26 253 34 57 49 27 99 78 28 76 298 344 239 195 165 289 219 143 140 166 258 281 172 132 256 62 50 33 21 9
343 278 197 198 199 226 230 251 319 105 106 289 38 348 2 39 22 13 75 83 29 34 37 71 115 305 270 298 77 87 315 116 116 291 3 150 262 10 302 57 59 40 30 11 2
335 282 208 190 223 261 294 309 131 336 41 10 11 65 55 10 22 354 98 120 94 70 70 335 317 353 330 29 42 227 250 213 185 123 202 162 260 270 37 53 35 38 20 5 5
326 306 271 207 234 266 292 305 218 141 5 59 12 62 8 262 285 214 104 134 117 109 115 77 347 181 208 262 304 285 253 232 189 132 221 220 261 351 13 22 26 18 5 2 3
279 308 3 329 346 337 341 313 315 136 190 167 261 226 219 220 281 218 189 134 132 141 122 114 219 279 286 291 297 298 301 288 275 241 177 244 256 31 35 31 18 2 354 3 0
345 359 332 306 319 324 327 322 309 301 163 210 159 263 309 188 217 332 64 71 130 211 168 174 243 314 298 292 287 288 280 271 310 297 45 28 43 48 31 16 5 356 11 358 349
0 337 351 292 310 321 258 265 270 272 293 225 131 47 238 325 99 79 82 61 19 154 204 164 172 355 270 310 317 323 289 306 95 65 89 55 313 32 15 4 351 11 8 356 360
Wind_Speed_850mb
1 3 7 11 12 11 13 14 13 10 4 3 8 10 10 7 5 6 8 14 18 25 18 18 22 11 20 42 42 46 6 11 13 21 11 43 20 49 34 44 29 37 43 32 25
3 6 10 12 12 13 15 15 12 7 0 5 9 10 7 4 8 15 15 12 14 13 12 11 18 24 39 38 41 17 5 17 3 21 15 43 57 53 48 49 44 42 34 30 20
6 11 14 13 13 14 16 14 10 3 2 7 9 8 7 11 23 8 9 6 3 5 0 16 31 46 58 59 60 43 10 10 35 40 38 46 55 56 45 17 41 41 21 20 7
11 14 14 13 13 15 16 13 7 1 2 7 11 12 10 16 8 3 6 6 5 6 15 24 32 48 22 18 35 7 8 31 30 24 33 22 48 42 49 34 32 21 45 85 69
14 14 12 12 13 15 15 12 6 0 1 6 14 16 15 19 25 9 7 5 6 14 26 40 48 53 15 19 13 8 2 15 24 20 24 49 40 30 32 19 25 29 40 62 70
12 11 11 11 12 14 14 11 6 1 1 10 17 19 19 22 2 6 9 5 16 28 33 29 35 42 18 19 12 16 20 9 17 21 8 10 28 36 18 17 26 35 47 43 51
9 10 10 9 9 11 13 11 7 2 2 5 15 22 26 27 6 9 15 10 12 11 30 28 26 29 40 23 12 16 8 13 9 27 10 5 7 14 24 17 30 52 52 51 47
9 8 7 6 6 9 12 12 8 5 5 8 13 18 19 4 17 17 18 18 7 10 14 21 18 24 23 30 6 8 8 9 16 19 13 17 5 18 21 23 33 50 52 54 49
7 6 4 4 5 8 11 12 10 10 9 13 15 13 22 5 9 5 9 20 10 9 12 17 10 25 34 5 12 10 13 4 9 26 14 10 14 18 27 29 36 45 45 47 43
6 5 4 5 5 6 10 13 13 12 9 20 21 18 23 12 4 10 4 6 16 16 18 23 13 6 12 11 5 11 5 12 15 12 16 14 12 15 37 31 42 43 40 39 35
4 6 7 8 4 5 6 2 6 9 20 22 23 12 8 3 6 10 6 13 16 16 11 35 5 6 8 9 12 17 15 18 5 16 11 6 19 18 29 34 43 48 39 34 29
5 8 11 8 5 11 3 7 20 16 19 35 32 27 7 4 15 9 13 19 15 12 23 13 9 12 16 16 9 14 14 17 18 15 10 6 2 16 32 21 46 53 50 45 33
4 12 13 11 11 5 4 12 15 23 10 35 42 26 15 14 23 14 13 19 27 12 12 4 8 17 14 13 17 14 19 19 17 18 14 13 8 11 9 44 51 43 34 24 17
2 13 15 11 3 13 22 13 16 18 4 11 19 20 27 17 5 9 10 19 23 8 15 5 15 10 14 19 18 11 17 17 20 17 8 10 10 16 21 15 26 34 28 32 23
1 13 12 9 9 11 10 13 25 3 4 18 18 11 18 15 18 7 5 16 12 18 9 11 11 14 14 10 6 6 12 13 18 13 9 18 3 14 18 15 17 35 39 28 22
3 10 15 6 10 11 16 16 12 5 10 16 18 14 11 27 17 15 5 3 13 10 15 6 10 7 5 14 14 4 10 16 11 4 4 23 14 5 6 5 9 22 23 25 12
8 13 18 13 7 32 16 15 5 6 17 14 19 16 17 16 13 14 11 9 6 2 12 18 6 15 12 9 17 20 14 9 11 6 10 24 13 5 12 21 28 24 19 10 11
12 10 20 23 4 24 10 7 7 16 15 0 7 18 18 18 14 16 9 9 19 14 11 9 10 8 5 9 3 12 4 9 4 5 11 15 7 3 12 22 17 9 10 10 16
11 5 12 11 2 13 11 3 9 8 10 17 6 8 13 6 10 7 11 9 9 10 6 8 3 5 13 10 6 12 9 6 3 7 4 3 8 3 12 9 18 22 19 24 30
15 16 19 13 16 3 1 10 10 36 11 14 9 0 12 5 8 5 6 11 9 13 14 7 8 7 9 6 10 3 2 10 6 1 5 13 8 5 9 11 11 14 25 30 36
21 12 9 29 7 5 6 11 22 13 14 9 13 12 15 10 0 5 15 14 17 12 9 9 6 13 15 5 12 2 4 2 6 8 7 3 11 7 4 5 9 25 33 36 40
13 6 20 24 6 10 9 11 15 17 13 5 6 8 12 15 12 14 11 9 10 14 7 2 5 5 11 16 8 5 3 7 9 10 2 8 11 5 1 27 30 26 30 37 44
32 16 19 19 5 9 18 24 6 6 5 7 3 10 15 13 10 8 15 11 3 9 5 5 5 5 20 9 5 5 5 9 8 7 9 8 11 14 17 23 34 36 42 47 44
14 7 11 27 28 11 14 17 7 11 7 10 7 14 10 3 10 2 9 10 12 14 14 8 2 6 10 15 10 11 13 13 13 7 11 13 18 12 13 16 35 41 44 40 41
6 8 17 7 12 20 15 11 16 5 16 18 4 10 12 9 9 9 9 12 17 18 9 9 4 8 16 21 25 18 21 17 14 14 10 14 6 7 10 15 35 41 46 35 45
13 14 20 29 29 19 12 11 17 22 14 13 13 15 8 9 7 6 8 6 7 5 10 9 5 7 12 21 26 29 26 17 12 14 10 13 6 10 29 45 50 44 42 48 49
16 10 11 17 19 11 8 14 20 27 31 2 9 7 2 5 25 26 19 6 3 11 12 9 7 4 8 15 23 16 11 5 6 11 6 7 5 23 25 37 37 37 45 46 43
Wind_Direction_850mb
231 192 176 163 157 156 154 148 145 138 125 316 300 276 262 240 189 195 223 290 285 293 275 253 250 258 282 271 273 273 334 289 297 9 151 67 91 56 75 99 113 118 107 114 139
198 177 166 160 160 161 156 152 153 146 357 305 294 272 270 279 275 276 283 288 280 276 262 265 288 277 252 259 261 259 110 271 118 47 24 64 72 68 60 68 108 116 115 123 131
172 164 161 162 165 164 161 163 165 166 321 313 289 233 257 304 316 266 196 262 321 171 306 272 269 273 256 251 259 255 187 36 37 29 28 86 72 68 69 40 62 146 155 138 57
156 158 162 166 167 169 172 175 181 175 316 314 262 243 269 315 343 274 219 219 204 184 280 281 285 290 272 259 270 15 32 77 69 31 24 83 88 68 67 57 74 76 55 74 80
149 156 162 165 170 175 180 185 193 181 295 258 264 260 294 312 285 41 71 134 208 284 301 291 281 284 275 304 63 348 105 59 87 75 56 99 104 103 77 63 57 64 54 60 65
144 152 158 164 173 182 191 200 206 176 45 235 256 276 301 289 94 24 74 264 293 305 300 307 319 329 336 339 72 3 3 118 118 118 116 106 114 105 98 107 98 73 70 54 46
130 139 150 162 179 195 205 212 218 222 116 240 262 280 286 263 282 273 291 281 305 287 301 317 343 330 327 336 349 352 338 302 177 156 149 147 68 110 122 91 93 83 76 61 48
131 136 146 162 184 204 216 221 228 226 210 277 271 298 277 299 235 248 299 274 313 312 297 318 313 303 300 308 312 262 304 255 242 141 128 121 92 114 117 118 97 89 79 71 60
154 152 155 167 185 208 219 226 234 235 227 275 282 278 277 288 167 312 319 310 350 302 298 303 293 271 277 253 330 301 250 250 106 171 146 126 157 142 126 98 96 93 87 81 73
188 186 173 160 174 194 211 221 227 243 253 279 263 290 254 286 118 253 223 332 310 310 283 262 257 243 323 47 284 327 319 350 124 244 150 195 135 151 139 145 123 113 103 94 85
180 166 150 142 150 179 165 170 300 266 243 223 280 253 136 59 300 257 300 285 244 289 276 280 238 295 33 47 14 346 348 340 318 210 146 171 159 171 148 151 136 120 116 110 102
165 151 140 133 146 150 195 277 319 316 306 263 272 277 59 200 263 201 262 247 232 234 259 310 58 0 359 337 36 19 19 359 334 28 36 75 315 142 165 164 139 126 122 121 121
155 154 147 141 151 114 307 347 341 322 282 291 224 241 202 245 273 98 336 339 302 282 274 14 51 22 11 15 36 32 32 2 340 333 357 2 315 259 147 118 107 117 123 129 131
155 164 166 174 229 309 283 351 347 337 346 258 199 241 183 225 251 79 355 320 320 7 16 35 86 51 332 56 39 5 15 358 332 356 308 46 286 311 146 116 120 132 151 148 142
161 181 183 196 326 358 22 325 312 321 313 141 176 186 171 217 123 82 16 322 358 354 55 270 51 49 11 44 44 250 343 288 280 283 329 292 3 287 116 141 168 166 152 152 145
258 193 191 240 297 357 344 322 318 28 248 196 141 179 212 224 157 132 215 2 308 325 304 236 103 90 64 353 311 294 310 322 282 171 332 266 199 333 24 167 102 63 122 112 100
326 215 201 234 285 6 311 302 13 222 317 146 161 182 217 198 171 151 198 220 217 187 342 328 232 86 85 12 359 21 44 347 351 21 208 341 35 28 65 58 75 70 66 16 342
339 243 224 224 6 338 294 1 248 270 288 261 146 171 192 209 185 167 150 280 18 67 28 16 347 25 110 81 349 288 129 140 276 355 285 320 52 197 106 97 96 70 88 60 48
341 301 237 174 45 302 310 262 235 278 0 343 81 320 203 188 123 135 179 266 50 66 106 10 40 128 81 48 93 309 50 189 71 293 4 196 90 63 158 118 52 34 22 56 20
329 288 263 165 216 245 40 252 285 287 352 353 326 233 279 335 94 133 245 28 102 80 79 331 336 344 149 206 142 206 273 33 353 274 298 325 3 155 43 9 8 10 62 35 17
333 316 131 180 241 211 218 250 295 78 58 352 3 360 345 26 253 34 57 49 27 99 78 28 76 298 344 239 195 165 289 219 143 140 166 258 281 172 132 256 62 50 33 21 9
343 278 197 198 199 226 230 251 319 105 106 289 38 348 2 39 22 13 75 83 29 34 37 71 115 305 270 298 77 87 315 116 116 291 3 150 262 10 302 57 59 40 30 11 2
335 282 208 190 223 261 294 309 131 336 41 10 11 65 55 10 22 354 98 120 94 70 70 335 317 353 330 29 42 227 250 213 185 123 202 162 260 270 37 53 35 38 20 5 5
326 306 271 207 234 266 292 305 218 141 5 59 12 62 8 262 285 214 104 134 117 109 115 77 347 181 208 262 304 285 253 232 189 132 221 220 261 351 13 22 26 18 5 2 3
279 308 3 329 346 337 341 313 315 136 190 167 261 226 219 220 281 218 189 134 132 141 122 114 219 279 286 291 297 298 301 288 275 241 177 244 256 31 35 31 18 2 354 3 0
345 359 332 306 319 324 327 322 309 301 163 210 159 263 309 188 217 332 64 71 130 211 168 174 243 314 298 292 287 288 280 271 310 297 45 28 43 48 31 16 5 356 11 358 349
0 337 351 292 310 321 258 265 270 272 293 225 131 47 238 325 99 79 82 61 19 154 204 164 172 355 270 310 317 323 289 306 95 65 89 55 313 32 15 4 351 11 8 356 360